FENGYUN 1C DEB

Satellite information

Favourite Embed

Satellite Type and Status

DEBRISIN ORBIT

Key statistics

Satellite FENGYUN 1C DEB at a glance.

Uptime

9715

Days in orbit

Revolutions

≈ 14.5

Per day

Orbit

SSO

Sun Synchronous Orbit

Inclination

99.0

Latest

Satellite identification and parameters

Extended collection of information and parameters for FENGYUN 1C DEB.

Object identification

Identified? True

Debris? True

Object name: FENGYUN 1C DEB

International designator: 1999-025RS

Object number (NORAD): 30113

Object ID (CCSDS): 30113

Country: PEOPLES REPUBLIC OF CHINA (PRC)

Current information (Y/N): Y

RCS size: SMALL

Orbital parameters

Period: 99.63 minutes

Inclination: 99.0378 deg

SMA: 7119.032 km

Apoapsis: 769.857 km

Periapsis: 711.937 km

RAAN: 199.8206 deg

Eccentricy: 0.0040679

Argument of periapsis: 359.5788 deg

Mean anomaly: 55.7874 deg

Mean motion: 14.45344412 rev/day

Mean motion (dot): 0.00007882 rev/day2

B* drag term: 0.0022321762 1/REarth

Two-line elements (TLE)

Creation date: Dec. 14, 2025, 3:07 a.m.

Reference frame: TEME

Reference center: EARTH

Epoch: Dec. 13, 2025, 2:01 p.m. UTC

TLE line 0: 0 FENGYUN 1C DEB

TLE line 1: 1 30113U 99025RS 25347.58446980 .00007882 00000-0 22322-2 0 9996

TLE line 2: 2 30113 99.0378 199.8206 0040679 359.5788 55.7874 14.45344412979218

Live tracking on map

Real-time ground track for satellite FENGYUN 1C DEB.

In-orbit conjunctions

A list of the most updated potential collisions computed for object FENGYUN 1C DEB.

Target Orbit TCA Probability of collision Miss distance Type
SL-8 R/B LEO 2025-07-03 00:37:38 0.0001152377 247.0 (m) ROCKET BODY
CZ-6A DEB LEO 2025-01-15 00:54:16 0.000175905 119.0 (m) DEBRIS
CZ-6A DEB LEO 2025-01-02 17:33:00 0.0006385841 46.0 (m) DEBRIS
CZ-6A DEB LEO 2024-12-01 02:15:14 0.000261843 228.0 (m) DEBRIS
CZ-6A DEB LEO 2024-11-17 10:33:21 0.0001484473 428.0 (m) DEBRIS

Associated space launch

Chinese polar orbiting meteorological satellite

FENGYUN 1C DEB was lifted into orbit during the mission ‘Long March 4B | Feng Yun 1C’, on board a Long March 4B space rocket.

The launch took place on May 10, 1999, 1:33 a.m. from Launch Complex 7.

For more information about the launch, click the button.

Launch to space Long March 4B | Feng Yun 1C
Long March 4B | Feng Yun 1C

Agency: N/A

Status: Launch Successful

Launch date: May 10, 1999, 1:33 a.m. UTC

Rocket: Long March 4B

Launch pad: Launch Complex 7

Location: Taiyuan Satellite Launch Center, People's Republic of China

...

Latest news about this satellite

There are no fresh news available about this satellite. Check back as we update our databases every day.


Newsletter sign-up

Weekly statistics, charts and insights to help you stay on top of the space industry.